DW4238 Weather Reports


time (UTC)temp
C
wind
direction
speed
KPH
gust
KPH
rain 1hr
cm
rain 24hr
cm
rain mn
cm
humidity
%
barometer
mb
20260505210053 29 201 16.1 24.1 0.00 0.00 0.00 74 1005.8
20260505205617 29 178 17.7 29.0 0.00 0.00 0.00 74 1005.9
20260505204617 28 192 19.3 29.0 0.00 0.00 0.00 74 1006.0
20260505204031 28 195 17.7 24.1 0.00 0.00 0.00 75 1006.0
20260505203054 28 181 17.7 25.7 0.00 0.00 0.00 75 1006.3
20260505202543 28 157 17.7 27.4 0.00 0.00 0.00 76 1006.3
20260505201604 28 207 17.7 29.0 0.00 0.00 0.00 75 1006.4
20260505201053 28 162 19.3 27.4 0.00 0.00 0.00 73 1006.5
20260505200052 28 195 16.1 27.4 0.00 0.00 0.00 76 1006.6
20260505195533 28 227 20.9 27.4 0.00 0.00 0.00 76 1006.6
20260505194601 28 170 16.1 29.0 0.00 0.00 0.00 76 1006.7
20260505194108 28 198 20.9 29.0 0.00 0.00 0.00 74 1006.7
20260505193115 28 219 16.1 33.8 0.00 0.00 0.00 75 1006.9
20260505192557 28 182 17.7 30.6 0.00 0.00 0.00 75 1006.8
20260505192103 28 184 16.1 27.4 0.00 0.00 0.00 76 1007.0
20260505191527 27 178 20.9 27.4 0.00 0.00 0.00 77 1007.0
20260505191140 27 205 19.3 25.7 0.00 0.00 0.00 76 1007.1
20260505190557 28 200 17.7 24.1 0.00 0.00 0.00 76 1007.1
20260505190030 28 184 17.7 32.2 0.00 0.00 0.00 76 1007.1
20260505185540 28 225 16.1 32.2 0.00 0.00 0.00 76 1007.1
20260505184601 28 199 17.7 29.0 0.00 0.00 0.00 77 1007.3
20260505184118 28 182 20.9 32.2 0.00 0.00 0.00 76 1007.3
20260505183116 27 205 14.5 24.1 0.00 0.00 0.00 78 1007.5
20260505182621 27 184 12.9 25.7 0.00 0.00 0.00 79 1007.5
20260505181622 27 257 20.9 25.7 0.00 0.00 0.00 77 1007.6
20260505181025 27 227 16.1 29.0 0.00 0.00 0.00 78 1007.6
20260505180042 27 213 19.3 35.4 0.00 0.00 0.00 78 1007.6
20260505175553 27 207 20.9 33.8 0.00 0.00 0.00 78 1007.6
20260505175055 27 191 19.3 32.2 0.00 0.00 0.00 78 1007.7
20260505174525 27 219 16.1 24.1 0.00 0.00 0.00 79 1007.8
20260505174035 26 164 17.7 24.1 0.00 0.00 0.00 79 1007.9
20260505173055 27 232 19.3 33.8 0.00 0.00 0.00 77 1007.8
20260505172556 27 211 17.7 33.8 0.00 0.00 0.00 79 1007.8
20260505171624 27 202 22.5 35.4 0.00 0.00 0.00 78 1007.9
20260505171030 26 195 17.7 27.4 0.00 0.00 0.00 80 1007.9
20260505170637 26 232 12.9 27.4 0.00 0.00 0.00 81 1008.1
20260505170038 26 216 14.5 33.8 0.00 0.00 0.00 82 1008.1
20260505165546 26 211 20.9 33.8 0.00 0.00 0.00 82 1008.1
20260505164606 26 223 17.7 29.0 0.00 0.00 0.00 83 1008.2
20260505164056 25 210 16.1 25.7 0.00 0.00 0.00 83 1008.1
20260505163056 25 202 12.9 33.8 0.00 0.00 0.00 84 1008.2
20260505162606 25 242 20.9 33.8 0.00 0.00 0.00 83 1008.1
20260505162111 25 213 14.5 30.6 0.00 0.00 0.00 85 1008.2
20260505161537 25 215 19.3 30.6 0.00 0.00 0.00 85 1008.2
20260505161044 25 221 16.1 29.0 0.00 0.00 0.00 86 1008.2
20260505153118 23 209 9.7 20.9 0.00 0.00 0.00 88 1008.0
20260505152527 23 207 16.1 20.9 0.00 0.00 0.00 88 1008.1
20260505152131 23 198 16.1 20.9 0.00 0.00 0.00 88 1008.1
20260505151540 23 209 11.3 20.9 0.00 0.00 0.00 88 1008.1
20260505151053 23 199 16.1 20.9 0.00 0.00 0.00 88 1008.0
20260505140120 23 196 11.3 20.9 0.00 0.00 0.00 89 1007.8
20260505130116 22 173 16.1 27.4 0.00 0.00 0.00 90 1007.3
20260505124626 22 190 17.7 25.7 0.00 0.00 0.00 90 1007.3
20260505124116 22 219 16.1 25.7 0.00 0.00 0.00 91 1007.4
20260505123618 22 180 16.1 24.1 0.00 0.00 0.00 90 1007.3
20260505123028 22 163 12.9 22.5 0.00 0.00 0.00 91 1007.3
20260505122536 22 215 14.5 24.1 0.00 0.00 0.00 91 1007.4
20260505121634 22 213 14.5 24.1 0.00 0.00 0.00 91 1007.0
20260505121054 22 191 14.5 25.7 0.00 0.00 0.00 91 1006.9
20260505120601 21 215 16.1 24.1 0.00 0.00 0.00 91 1006.9
20260505120024 21 208 12.9 24.1 0.00 0.00 0.00 91 1007.0
20260505115635 21 202 12.9 24.1 0.00 0.00 0.00 91 1007.1
20260505114614 21 207 16.1 22.5 0.00 0.00 0.00 91 1007.1
20260505114058 21 204 16.1 27.4 0.00 0.00 0.00 91 1007.0
20260505113608 21 194 16.1 27.4 0.00 0.00 0.00 91 1007.1
20260505112533 21 200 17.7 25.7 0.00 0.00 0.00 91 1006.9
20260505111553 21 200 16.1 27.4 0.00 0.00 0.00 91 1007.0
20260505111100 21 202 16.1 32.2 0.00 0.00 0.00 91 1006.8
20260505110557 21 189 19.3 29.0 0.00 0.00 0.00 91 1006.7
20260505102114 21 186 16.1 24.1 0.00 0.00 0.00 90 1006.9
20260505101534 21 190 14.5 20.9 0.00 0.00 0.00 91 1007.0
20260505101045 21 200 14.5 24.1 0.00 0.00 0.00 90 1006.8
20260505100044 21 200 17.7 30.6 0.00 0.00 0.00 91 1007.1
20260505095553 21 196 14.5 20.9 0.00 0.00 0.00 90 1007.1
20260505094547 21 214 12.9 24.1 0.00 0.00 0.00 90 1007.0
20260505094053 21 192 16.1 24.1 0.00 0.00 0.00 90 1007.0
20260505093558 21 192 12.9 20.9 0.00 0.00 0.00 90 1006.9
20260505093029 21 186 14.5 22.5 0.00 0.00 0.00 90 1007.0
20260505092532 21 200 14.5 24.1 0.00 0.00 0.00 90 1007.1
20260505091552 21 202 16.1 22.5 0.00 0.00 0.00 89 1007.3
20260505091102 21 208 12.9 30.6 0.00 0.00 0.00 89 1007.3
20260505090558 21 217 19.3 29.0 0.00 0.00 0.00 89 1007.2
20260505090025 21 209 17.7 27.4 0.00 0.00 0.00 89 1007.1
20260505085541 21 184 16.1 29.0 0.00 0.00 0.00 89 1007.1
20260505085141 21 196 16.1 29.0 0.00 0.00 0.00 89 1007.2
20260505084549 21 202 17.7 25.7 0.00 0.00 0.00 89 1007.3
20260505084102 21 204 20.9 25.7 0.00 0.00 0.00 89 1007.4
20260505083103 21 194 16.1 22.5 0.00 0.00 0.00 89 1007.7
20260505082606 21 186 12.9 25.7 0.00 0.00 0.00 89 1007.8
20260505082116 21 205 14.5 22.5 0.00 0.00 0.00 89 1007.8
20260505081544 21 204 14.5 22.5 0.00 0.00 0.00 88 1007.8
20260505081046 21 219 14.5 25.7 0.00 0.00 0.00 88 1007.7
20260505080109 21 199 12.9 20.9 0.00 0.00 0.00 88 1007.9
20260505075601 21 190 12.9 19.3 0.00 0.00 0.00 88 1008.0
20260505075101 21 190 12.9 19.3 0.00 0.00 0.00 88 1008.0
20260505074531 21 185 14.5 24.1 0.00 0.00 0.00 88 1007.9
20260505074123 21 203 14.5 20.9 0.00 0.00 0.00 88 1007.9
20260505073626 21 196 12.9 24.1 0.00 0.00 0.00 88 1008.1
20260505073049 21 180 14.5 24.1 0.00 0.00 0.00 88 1008.2
20260505072558 21 190 11.3 16.1 0.00 0.00 0.00 88 1008.2
20260505071620 21 189 12.9 22.5 0.00 0.00 0.00 88 1008.4
20260505071028 21 196 11.3 16.1 0.00 0.00 0.00 88 1008.4
20260505070636 21 191 11.3 16.1 0.00 0.00 0.00 88 1008.5
20260505070044 21 175 11.3 16.1 0.00 0.00 0.00 88 1008.4
20260505065526 21 183 11.3 16.1 0.00 0.00 0.00 88 1008.6
20260505065034 21 185 11.3 17.7 0.00 0.00 0.00 88 1008.6
20260505064536 21 178 11.3 19.3 0.00 0.00 0.00 88 1008.6
20260505064046 21 180 11.3 20.9 0.00 0.00 0.00 88 1008.6
20260505063547 21 178 12.9 22.5 0.00 0.00 0.00 88 1008.5
20260505063026 21 172 12.9 22.5 0.00 0.00 0.00 88 1008.4
20260505062535 21 147 12.9 22.5 0.00 0.00 0.00 87 1008.4
20260505062044 21 183 12.9 24.1 0.00 0.00 0.00 87 1008.5
20260505061536 21 175 12.9 24.1 0.00 0.00 0.00 87 1008.5
20260505061025 21 185 14.5 24.1 0.00 0.00 0.00 87 1008.5
20260505060524 21 182 16.1 24.1 0.00 0.00 0.00 87 1008.5
20260505060028 21 146 16.1 22.5 0.00 0.00 0.00 87 1008.5
20260505055556 21 177 16.1 20.9 0.00 0.00 0.00 86 1008.5
20260505055043 21 181 16.1 32.2 0.00 0.00 0.00 86 1008.5
20260505054535 21 186 16.1 30.6 0.00 0.00 0.00 86 1008.5
20260505054112 21 182 17.7 32.2 0.00 0.00 0.00 86 1008.6
20260505053533 21 180 19.3 27.4 0.00 0.00 0.00 86 1008.7
20260505053033 21 189 16.1 25.7 0.00 0.00 0.00 86 1008.8
20260505052542 21 185 14.5 25.7 0.00 0.00 0.00 86 1008.7
20260505052050 21 181 14.5 24.1 0.00 0.00 0.00 86 1008.8
20260505051542 21 185 17.7 22.5 0.00 0.00 0.00 85 1008.7
20260505051033 21 192 16.1 25.7 0.00 0.00 0.00 85 1008.7
20260505050536 21 191 16.1 25.7 0.00 0.00 0.00 85 1008.8
20260505050122 21 184 17.7 22.5 0.00 0.00 0.00 85 1008.8
20260505041531 21 172 17.7 25.7 0.00 0.00 0.00 83 1009.3
20260505041034 21 171 16.1 25.7 0.00 0.00 0.00 83 1009.2
20260505040104 22 188 12.9 24.1 0.00 0.00 0.00 82 1009.3
20260505035611 22 171 17.7 24.1 0.00 0.00 0.00 81 1009.2
20260505035117 22 191 17.7 27.4 0.00 0.00 0.00 81 1009.2
20260505034529 22 189 16.1 29.0 0.00 0.00 0.00 81 1009.0
20260505034030 22 172 19.3 29.0 0.00 0.00 0.00 81 1008.9
20260505033052 22 189 16.1 22.5 0.00 0.00 0.00 81 1009.1
20260505032603 22 187 14.5 20.9 0.00 0.00 0.00 81 1009.2
20260505031603 22 165 14.5 27.4 0.00 0.00 0.00 80 1009.0
20260505031053 22 158 14.5 27.4 0.00 0.00 0.00 80 1009.1
20260505030555 22 186 14.5 17.7 0.00 0.00 0.00 79 1009.1
20260505030025 22 175 14.5 19.3 0.00 0.00 0.00 79 1009.2
20260505025528 22 169 12.9 20.9 0.00 0.00 0.00 79 1009.2
20260505024556 23 186 14.5 30.6 0.00 0.00 0.00 78 1009.1
20260505024059 23 162 16.1 24.1 0.00 0.00 0.00 78 1009.0
20260505023118 23 188 16.1 27.4 0.00 0.00 0.00 78 1009.0
20260505022528 23 166 17.7 27.4 0.00 0.00 0.00 78 1008.8
20260505021027 23 189 16.1 29.0 0.00 0.00 0.00 77 1008.9
20260505020633 23 167 12.9 27.4 0.00 0.00 0.00 77 1008.9
20260505020040 23 157 11.3 16.1 0.00 0.00 0.00 77 1008.9
20260505015542 23 169 11.3 24.1 0.00 0.00 0.00 77 1008.8
20260505014603 23 170 12.9 19.3 0.00 0.00 0.00 76 1008.7
20260505014113 23 165 12.9 22.5 0.00 0.00 0.00 75 1008.7
20260505013623 23 190 14.5 22.5 0.00 0.00 0.00 76 1008.6
20260505013045 23 175 14.5 19.3 0.00 0.00 0.00 75 1008.6
20260505012553 24 169 12.9 29.0 0.00 0.00 0.00 74 1008.6
20260505011553 24 175 17.7 27.4 0.00 0.00 0.00 74 1008.5
20260505011058 24 123 11.3 27.4 0.00 0.00 0.00 73 1008.5
20260505010057 25 190 16.1 25.7 0.00 0.00 0.00 73 1008.3
20260505005546 25 190 16.1 22.5 0.00 0.00 0.00 73 1008.4
20260505004604 25 194 12.9 25.7 0.00 0.00 0.00 73 1008.4
20260505004117 25 198 16.1 25.7 0.00 0.00 0.00 72 1008.4
20260505003619 25 141 16.1 22.5 0.00 0.00 0.00 72 1008.4
20260505003030 25 220 11.3 25.7 0.00 0.00 0.00 72 1008.4
20260505002541 25 155 16.1 25.7 0.00 0.00 0.00 72 1008.5
20260505001601 25 192 17.7 24.1 0.00 0.00 0.00 71 1008.6
20260505001105 25 204 14.5 22.5 0.00 0.00 0.00 71 1008.6
20260505000121 25 182 17.7 30.6 0.00 0.00 0.00 71 1008.7
20260504235610 25 195 20.9 30.6 0.00 0.00 0.00 71 1008.6
20260504235026 25 161 16.1 25.7 0.00 0.00 0.00 71 1008.6
20260504234528 25 166 14.5 25.7 0.00 0.00 0.00 71 1008.8
20260504234114 25 143 20.9 29.0 0.00 0.00 0.00 71 1008.8
20260504233621 25 150 17.7 27.4 0.00 0.00 0.00 71 1008.9
20260504233025 25 179 19.3 27.4 0.00 0.00 0.00 70 1008.8
20260504232527 26 192 16.1 30.6 0.00 0.00 0.00 70 1009.0
20260504231554 26 190 20.9 30.6 0.00 0.00 0.00 70 1008.8
20260504231058 26 180 17.7 29.0 0.00 0.00 0.00 70 1008.9
20260504230608 26 171 16.1 29.0 0.00 0.00 0.00 69 1009.0
20260504230028 26 163 17.7 29.0 0.00 0.00 0.00 68 1009.0
20260504225538 26 179 20.9 32.2 0.00 0.00 0.00 68 1008.9
20260504224541 26 183 20.9 27.4 0.00 0.00 0.00 66 1009.2
20260504224051 26 166 14.5 25.7 0.00 0.00 0.00 66 1009.2
20260504223053 26 132 16.1 27.4 0.00 0.00 0.00 66 1009.2
20260504222557 26 162 20.9 27.4 0.00 0.00 0.00 64 1009.3
20260504222105 27 190 19.3 27.4 0.00 0.00 0.00 62 1009.1
20260504221532 27 191 17.7 29.0 0.00 0.00 0.00 63 1009.2
20260504221034 27 150 19.3 29.0 0.00 0.00 0.00 63 1009.2
20260504220059 27 151 14.5 25.7 0.00 0.00 0.00 64 1009.2
20260504215609 27 196 14.5 25.7 0.00 0.00 0.00 64 1009.3
20260504215120 27 183 17.7 30.6 0.00 0.00 0.00 64 1009.5
20260504214540 27 142 20.9 30.6 0.00 0.00 0.00 63 1009.5
20260504214052 26 194 17.7 29.0 0.00 0.00 0.00 64 1009.6
20260504213050 26 185 17.7 25.7 0.00 0.00 0.00 65 1009.8
20260504212535 26 177 17.7 24.1 0.00 0.00 0.00 63 1009.9
20260504211559 26 169 16.1 25.7 0.00 0.00 0.00 64 1010.1
20260504211109 26 172 12.9 24.1 0.00 0.00 0.00 64 1010.3